Hourly Weather Kistenli-Ivanovka

Today, 27 July, Tuesday

Time Temperature Precipitation Wind Pressure Humidity
00:00 +14°C° 0 mm 1 mps 737 mmHg 55%
01:00 +13°C° 0 mm 1 mps 736 mmHg 58%
02:00 +13°C° 0 mm 1 mps 736 mmHg 57%
03:00 +14°C° 0 mm 1 mps 736 mmHg 56%
04:00 +14°C° 0 mm 1 mps 736 mmHg 56%
05:00 +15°C° 0 mm 2 mps 736 mmHg 53%
06:00 +16°C° 0 mm 2 mps 736 mmHg 50%
07:00 +18°C° 0 mm 3 mps 736 mmHg 47%
08:00 +19°C° 0 mm 3 mps 736 mmHg 43%
09:00 +21°C° 0 mm 4 mps 736 mmHg 39%
10:00 +23°C° 0 mm 5 mps 735 mmHg 35%
11:00 +23°C° 0 mm 5 mps 735 mmHg 34%
12:00 +25°C° 0 mm 5 mps 735 mmHg 33%
13:00 +25°C° 0 mm 5 mps 734 mmHg 31%
14:00 +25°C° 0 mm 5 mps 734 mmHg 33%
15:00 +25°C° 0 mm 5 mps 734 mmHg 34%
16:00 +25°C° 0 mm 5 mps 733 mmHg 36%
17:00 +23°C° 0.1 mm 5 mps 733 mmHg 45%
18:00 +21°C° 0.1 mm 4 mps 733 mmHg 54%
19:00 +19°C° 0.1 mm 4 mps 733 mmHg 63%
20:00 +18°C° 0.2 mm 3 mps 733 mmHg 70%
21:00 +17°C° 0.2 mm 3 mps 733 mmHg 76%
22:00 +16°C° 0.2 mm 2 mps 733 mmHg 83%
23:00 +15°C° 0 mm 2 mps 733 mmHg 83%

Tomorrow, 28 July, Wednesday

Time Temperature Precipitation Wind Pressure Humidity
00:00 +14°C° 0 mm 2 mps 733 mmHg 84%
01:00 +14°C° 0 mm 2 mps 733 mmHg 84%
02:00 +13°C° 0 mm 2 mps 732 mmHg 83%
03:00 +13°C° 0 mm 2 mps 732 mmHg 82%
04:00 +12°C° 0 mm 2 mps 732 mmHg 81%
05:00 +13°C° 0 mm 2 mps 733 mmHg 77%
06:00 +14°C° 0 mm 2 mps 733 mmHg 73%
07:00 +15°C° 0 mm 2 mps 733 mmHg 70%
08:00 +17°C° 0 mm 3 mps 733 mmHg 60%
09:00 +19°C° 0 mm 4 mps 733 mmHg 50%
10:00 +20°C° 0 mm 5 mps 733 mmHg 41%
11:00 +21°C° 0 mm 5 mps 733 mmHg 36%
12:00 +22°C° 0 mm 5 mps 733 mmHg 32%
13:00 +23°C° 0 mm 5 mps 733 mmHg 28%
14:00 +23°C° 0 mm 5 mps 733 mmHg 26%
15:00 +23°C° 0 mm 5 mps 733 mmHg 25%
16:00 +23°C° 0 mm 4 mps 733 mmHg 23%
17:00 +23°C° 0 mm 4 mps 733 mmHg 26%
18:00 +22°C° 0 mm 3 mps 733 mmHg 28%
19:00 +21°C° 0 mm 3 mps 733 mmHg 31%
20:00 +19°C° 0 mm 2 mps 732 mmHg 36%
21:00 +17°C° 0 mm 2 mps 732 mmHg 41%
22:00 +14°C° 0 mm 1 mps 732 mmHg 46%
23:00 +14°C° 0 mm 1 mps 732 mmHg 47%

Day after tomorrow, 29 July, Thursday

Time Temperature Precipitation Wind Pressure Humidity
00:00 +13°C° 0 mm 1 mps 732 mmHg 49%
01:00 +12°C° 0 mm 0 mps 732 mmHg 51%
02:00 +12°C° 0 mm 0 mps 732 mmHg 52%
03:00 +12°C° 0 mm 1 mps 732 mmHg 53%
04:00 +12°C° 0 mm 1 mps 732 mmHg 54%
05:00 +14°C° 0 mm 1 mps 732 mmHg 50%
06:00 +15°C° 0 mm 1 mps 732 mmHg 46%
07:00 +18°C° 0 mm 1 mps 733 mmHg 41%
08:00 +19°C° 0 mm 2 mps 732 mmHg 37%
09:00 +21°C° 0 mm 3 mps 732 mmHg 33%
10:00 +23°C° 0 mm 4 mps 732 mmHg 30%
11:00 +25°C° 0 mm 4 mps 732 mmHg 29%
12:00 +27°C° 0 mm 4 mps 732 mmHg 28%
13:00 +28°C° 0 mm 5 mps 731 mmHg 27%
14:00 +28°C° 0 mm 5 mps 731 mmHg 28%
15:00 +28°C° 0 mm 5 mps 730 mmHg 30%
16:00 +28°C° 0 mm 5 mps 730 mmHg 31%
17:00 +25°C° 1.2 mm 4 mps 730 mmHg 52%
18:00 +20°C° 1.2 mm 3 mps 730 mmHg 72%
19:00 +17°C° 1.2 mm 2 mps 730 mmHg 93%
20:00 +17°C° 1.7 mm 3 mps 729 mmHg 94%
21:00 +17°C° 1.7 mm 3 mps 729 mmHg 96%
22:00 +17°C° 1.7 mm 4 mps 729 mmHg 97%
23:00 +17°C° 0.4 mm 4 mps 728 mmHg 97%

30 July, Friday

Time Temperature Precipitation Wind Pressure Humidity
00:00 +17°C° 0.4 mm 3 mps 728 mmHg 97%
01:00 +16°C° 0.4 mm 3 mps 728 mmHg 97%
02:00 +16°C° 0 mm 3 mps 727 mmHg 97%
03:00 +16°C° 0 mm 2 mps 727 mmHg 97%
04:00 +16°C° 0 mm 2 mps 727 mmHg 98%
05:00 +16°C° 0 mm 2 mps 727 mmHg 95%
06:00 +17°C° 0 mm 3 mps 727 mmHg 93%
07:00 +18°C° 0 mm 3 mps 727 mmHg 91%
08:00 +19°C° 0 mm 3 mps 727 mmHg 84%
09:00 +21°C° 0 mm 4 mps 727 mmHg 77%
10:00 +23°C° 0 mm 4 mps 727 mmHg 69%
11:00 +25°C° 0 mm 4 mps 727 mmHg 64%
12:00 +26°C° 0 mm 5 mps 727 mmHg 59%
13:00 +27°C° 0 mm 5 mps 727 mmHg 54%
14:00 +28°C° 0 mm 6 mps 727 mmHg 50%
15:00 +28°C° 0 mm 6 mps 727 mmHg 46%
16:00 +29°C° 0 mm 6 mps 727 mmHg 43%
17:00 +27°C° 0.1 mm 5 mps 727 mmHg 52%
18:00 +25°C° 0.1 mm 4 mps 727 mmHg 62%
19:00 +23°C° 0.1 mm 4 mps 727 mmHg 71%
20:00 +21°C° 0 mm 3 mps 727 mmHg 75%
21:00 +20°C° 0 mm 3 mps 728 mmHg 79%
22:00 +19°C° 0 mm 2 mps 728 mmHg 83%
23:00 +19°C° 0 mm 2 mps 728 mmHg 84%

31 July, Saturday

Time Temperature Precipitation Wind Pressure Humidity
00:00 +19°C° 0 mm 2 mps 728 mmHg 85%
01:00 +18°C° 0 mm 2 mps 728 mmHg 86%
02:00 +18°C° 0 mm 2 mps 728 mmHg 86%
03:00 +18°C° 0 mm 2 mps 728 mmHg 86%
04:00 +18°C° 0 mm 2 mps 728 mmHg 87%
05:00 +19°C° 0 mm 2 mps 729 mmHg 82%
06:00 +20°C° 0 mm 2 mps 729 mmHg 78%
07:00 +21°C° 0 mm 3 mps 729 mmHg 74%
08:00 +24°C° 0 mm 3 mps 730 mmHg 65%
09:00 +26°C° 0 mm 4 mps 730 mmHg 56%
10:00 +28°C° 0 mm 5 mps 730 mmHg 48%
11:00 +29°C° 0 mm 5 mps 730 mmHg 43%
12:00 +30°C° 0 mm 5 mps 730 mmHg 38%
13:00 +32°C° 0 mm 5 mps 730 mmHg 33%
14:00 +32°C° 0 mm 5 mps 730 mmHg 32%
15:00 +32°C° 0 mm 5 mps 730 mmHg 30%
16:00 +32°C° 0 mm 5 mps 730 mmHg 29%
17:00 +30°C° 0 mm 4 mps 730 mmHg 33%
18:00 +29°C° 0 mm 3 mps 730 mmHg 37%
19:00 +28°C° 0 mm 2 mps 730 mmHg 41%
20:00 +27°C° 0 mm 1 mps 730 mmHg 44%
21:00 +25°C° 0 mm 1 mps 731 mmHg 47%
22:00 +23°C° 0 mm 1 mps 731 mmHg 50%
23:00 +23°C° 0 mm 1 mps 731 mmHg 50%

1 August, Sunday

Time Temperature Precipitation Wind Pressure Humidity
00:00 +23°C° 0 mm 1 mps 731 mmHg 49%
01:00 +23°C° 0 mm 2 mps 731 mmHg 48%
02:00 +23°C° 0 mm 2 mps 730 mmHg 51%
03:00 +21°C° 0 mm 2 mps 730 mmHg 53%
04:00 +21°C° 0 mm 2 mps 730 mmHg 56%
05:00 +23°C° 0 mm 2 mps 730 mmHg 55%
06:00 +23°C° 0 mm 2 mps 730 mmHg 55%
07:00 +24°C° 0 mm 2 mps 730 mmHg 55%
08:00 +26°C° 0 mm 2 mps 730 mmHg 51%
09:00 +28°C° 0 mm 3 mps 730 mmHg 47%
10:00 +30°C° 0 mm 4 mps 730 mmHg 43%
11:00 +32°C° 0 mm 4 mps 730 mmHg 40%
12:00 +33°C° 0 mm 4 mps 730 mmHg 38%
13:00 +34°C° 0 mm 4 mps 730 mmHg 36%
14:00 +34°C° 0 mm 4 mps 730 mmHg 35%
15:00 +34°C° 0 mm 5 mps 730 mmHg 34%
16:00 +34°C° 0 mm 5 mps 730 mmHg 33%
17:00 +33°C° 0 mm 4 mps 730 mmHg 39%
18:00 +30°C° 0 mm 3 mps 730 mmHg 46%
19:00 +29°C° 0 mm 1 mps 730 mmHg 52%
20:00 +27°C° 0.1 mm 1 mps 730 mmHg 57%
21:00 +26°C° 0.1 mm 2 mps 730 mmHg 61%
22:00 +24°C° 0.1 mm 2 mps 730 mmHg 65%
23:00 +24°C° 0 mm 1 mps 730 mmHg 66%
Show more